Flag for U.S.A. Weather past 2 weeks in Ocala, Florida, U.S.A.

Now
88 °F

Scattered clouds.


Feels Like: 87 °F
Forecast: 65 / 88 °F
Wind: 7 mph from East

Location: Ocala Municipal

Current Time: May 29, 2015 at 6:37:59 PM

Latest Report: May 29, 2015 at 5:50 PM


Visibility: 10 mi

Pressure: 30.05 "Hg

Humidity: 38%

Dew point: 59 °F

Location of OcalaLocation

Historic Weather in Ocala — Graph

°F

Ocala temperature yesterday

Maximum temperature yesterday: 90 °F (at 3:50 PM)
Minimum temperature yesterday: 66 °F (at 3:55 AM)
Average temperature yesterday: 75 °F

Past Weeks' High & Low Weather Summary

 TemperatureHumidityPressure
High93 °F (May 25, 3:50 PM)94% (May 15, 3:35 AM)30.27 "Hg (May 15, 3:35 AM)
Low63 °F (May 29, 4:35 AM)31% (May 28, 2:50 PM)29.93 "Hg (May 20, 6:50 PM)
Average76 °F74%30.14 "Hg
* Reported May 14 4:50 PM — May 29 4:50 PM, Ocala, Weather by CustomWeather, © 2015

Note: Actual official high and low records may vary slightly from our data, if they occured in-between our weather recording intervals... More about our weather records

Advertising

Ocala weather history for previous 24 hours

 ConditionsComfort  
Time TempWeatherWind HumidityBarometerVisibility
4:50 PM
Fri, May 29
88 °FScattered clouds.7 mph38%30.07 "Hg10 mi
3:50 PM88 °FScattered clouds.5 mph35%30.09 "Hg10 mi
2:50 PM88 °FScattered clouds.5 mph40%30.11 "Hg10 mi
1:50 PM88 °FScattered clouds.5 mph40%30.13 "Hg10 mi
12:50 PM86 °FPartly sunny.7 mph43%30.14 "Hg10 mi
11:50 AM82 °FPartly sunny.7 mph48%30.15 "Hg10 mi
10:50 AM81 °FScattered clouds.7 mph54%30.15 "Hg10 mi
9:50 AM79 °FSunny.6 mph58%30.14 "Hg10 mi
8:50 AM75 °FSunny.6 mph69%30.13 "Hg10 mi
7:50 AM66 °FSunny.No wind88%30.12 "Hg10 mi
6:50 AM63 °FClear.No wind88%30.10 "Hg10 mi
6:35 AM63 °FClear.No wind88%30.10 "Hg10 mi
6:15 AM63 °FClear.No wind94%30.09 "Hg10 mi
5:55 AM63 °FClear.No wind94%30.10 "Hg10 mi
5:35 AM64 °FPassing clouds.No wind88%30.09 "Hg10 mi
5:15 AM64 °FClear.No wind88%30.09 "Hg10 mi
4:55 AM63 °FClear.No wind94%30.09 "Hg10 mi
4:35 AM63 °FClear.No wind94%30.09 "Hg10 mi
4:15 AM64 °FClear.No wind88%30.09 "Hg10 mi
3:55 AM64 °FClear.No wind88%30.09 "Hg10 mi
3:35 AM64 °FClear.No wind88%30.10 "Hg10 mi
3:15 AM64 °FClear.No wind88%30.10 "Hg10 mi
2:55 AM64 °FClear.3 mph88%30.11 "Hg10 mi
2:35 AM66 °FClear.No wind83%30.12 "Hg10 mi
2:15 AM66 °FClear.No wind83%30.12 "Hg10 mi
1:55 AM66 °FClear.No wind83%30.13 "Hg10 mi
1:35 AM68 °FClear.No wind78%30.14 "Hg10 mi
1:15 AM70 °FClear.No wind73%30.14 "Hg10 mi
12:55 AM70 °FClear.No wind73%30.15 "Hg10 mi
12:35 AM72 °FClear.No wind69%30.15 "Hg10 mi
12:15 AM72 °FClear.No wind69%30.16 "Hg10 mi
11:55 PM
Thu, May 28
72 °FClear.3 mph69%30.16 "Hg10 mi
11:35 PM73 °FClear.3 mph65%30.16 "Hg10 mi
11:15 PM73 °FClear.3 mph65%30.16 "Hg10 mi
10:55 PM73 °FClear.3 mph65%30.16 "Hg10 mi
10:35 PM75 °FClear.3 mph61%30.16 "Hg10 mi
10:15 PM75 °FClear.3 mph61%30.15 "Hg10 mi
9:55 PM75 °FClear.3 mph61%30.14 "Hg10 mi
9:35 PM77 °FClear.6 mph57%30.13 "Hg10 mi
9:15 PM77 °FSunny.6 mph57%30.13 "Hg10 mi
8:55 PM79 °FSunny.3 mph54%30.12 "Hg10 mi
8:35 PM79 °FSunny.5 mph54%30.12 "Hg10 mi
8:15 PM81 °FSunny.6 mph54%30.12 "Hg10 mi
7:55 PM81 °FSunny.9 mph54%30.11 "Hg10 mi
6:50 PM84 °FScattered clouds.7 mph48%30.09 "Hg10 mi
Weather by CustomWeather, © 2015

See weather overviewHow to use our weather pages